Other Public Products
Issued by NWS Charleston, SC

Current Version | Previous Version | Graphics & Text | Print | Product List | Glossary On
Versions: 1 2 3 4 5 6 7 8 9 10 11 12 13 14 15 16 17 18 19 20 21 22 23 24 25 26 27 28 29 30 31 32 33 34 35 36 37 38 39 40 41 42 43 44 45 46 47 48 49 50
774
FPUS82 KCHS 182139
OPUCHS

TEST...KCHS/KSAV Gateway Observations...TEST
National Weather Service Charleston SC
500 PM EDT MON SEP 18 2017

NOTE: "fair" indicates few or no clouds below 12,000 feet with no
significant weather and/or obstructions to visibility.

SCZ050-WAZ558-NCZ071-TXZ119-213-PAZ071-DCZ001-FLZ074-172-MI076-
NYZ176-178-MAZ016-IL014-TNZ027-NJZ106-GAZ044-MD014-182200-

...Gateway Observations for Charleston International...

CITY           SKY/WX    TMP DP  RH WIND       PRES   REMARKS
Chas Airport   MOSUNNY   86  64  47 N9        29.94F
Seattle        PTSUNNY   61  46  57 S15       29.77S
Charlotte      MOSUNNY   86  63  45 CALM      30.00S
Dallas DFW     MOSUNNY   94  61  33 S12G17    29.90F HX  94
Dallas Love    MOSUNNY   93  60  33 E3        29.91F HX  93
Philladelphia  MOSUNNY   79  65  62 E12       30.05F
Wash National  PTSUNNY   76  69  79 N10       30.04F
Baltimore      PTSUNNY   72  70  93 N6        30.05S
Miami          MOSUNNY   90  70  51 W8        29.87F HX  95
Detroit        CLOUDY    69  66  90 NE10      30.06S
Newark         PTSUNNY   73  66  78 NE9       30.09S
Laguardia      CLOUDY    73  67  81 E9        30.08F
J F K          CLOUDY    76  67  73 E12       30.09F
Boston Logan   CLOUDY    66  64  93 E6        30.15  FOG
Ft. Lauderdale MOSUNNY   90  74  59 W6        29.86F HX  99
Chicago O`Hare MOSUNNY   74  54  49 E8        30.03F
Chicago Midway MOSUNNY   74  54  49 E10       30.03F
Houston Bush   CLOUDY    84  75  74 VRB7      29.94F HX  92
Houston Hobby  PTSUNNY   92  76  59 VRB6      29.93F HX 104
Nashville      MOSUNNY   88  64  44 E5        30.00F
Atlanta        MOSUNNY   86  56  35 N9        30.01F

$$

GAZ044-118-TXZ119-213-NCZ071-DCZ001-MDZ014-506-PAZ021-071-NJZ106-
NYZ176-178-MAZ106-OHZ011-021-055-MIZ076-KYZ091-ILZ014-INZ047-
MNZ060-ONZ431-182200-

...Gateway Observations for Savannah International...

CITY           SKY/WX    TMP DP  RH WIND       PRES   REMARKS
Savannah Arpt  MOSUNNY   89  64  43 NE9       29.95F HX  90
Atlanta        MOSUNNY   86  56  35 N9        30.01F
Charlotte      MOSUNNY   86  63  45 CALM      30.00S
Dallas DFW     MOSUNNY   94  61  33 S12G17    29.90F HX  94
Houston Bush   CLOUDY    84  75  74 VRB7      29.94F HX  92
Wash National  PTSUNNY   76  69  79 N10       30.04F
Wash Dulles    PTSUNNY   75  67  76 E9        30.04F
Baltimore      PTSUNNY   72  70  93 N6        30.05S
Philadelphia   MOSUNNY   79  65  62 E12       30.05F
Newark         PTSUNNY   73  66  78 NE9       30.09S
Laguardia      CLOUDY    73  67  81 E9        30.08F
J F K          CLOUDY    76  67  73 E12       30.09F
Boston         CLOUDY    66  64  93 E6        30.15  FOG
Pittsburg      CLOUDY    82  61  48 S3        30.05F
Akron          PTSUNNY   83  59  44 S6        30.05F
Cleveland      MOSUNNY   82  63  52 N10       30.05F
Cincinnati     CLOUDY    83  67  58 CALM      30.01F
Columbus       CLOUDY    82  59  45 CALM      30.01F
Detroit        CLOUDY    69  66  90 NE10      30.06S
Chicago O`Hare MOSUNNY   74  54  49 E8        30.03F
Minneapolis    CLOUDY    56  55  97 SE10      29.99F
Indianapolis   PTSUNNY   83  69  62 N6        29.98F
Toronto Canada PTSUNNY   81  66  61 SE9       30.02S

$$




USA.gov is the U.S. government's official web portal to all federal, state and local government web resources and services.